Cold Lake, Alberta

1:56 AM MDT on April 22, 2018 (GMT -0600)
Cold Lake

Weather History for CYOD - February, 2014

Change the Weather History Date:

Thursday, February 27, 2014

  Actual Average Record
Temperature  
Mean Temperature 3 °F -  
Max Temperature 17 °F 30 °F 37 °F (1999)
Min Temperature -11 °F 9 °F -18 °F (2009)
Degree Days  
Heating Degree Days 62    
Moisture  
Dew Point -10 °F    
Average Humidity 51    
Maximum Humidity 61    
Minimum Humidity 31    
Precipitation  
Precipitation 0.00 in 0.02 in - ()
Sea Level Pressure  
Sea Level Pressure 29.96 in    
Wind  
Wind Speed 9 mph ()    
Max Wind Speed 24 mph    
Max Gust Speed 31 mph    
Visibility 15.0 miles    
Events Snow    
Averages and records for this station are not official NWS values.
T = Trace of Precipitation, MM = Missing Value Source: Averaged Metar Reports

Daily Weather History Graph

Daily Weather History Graph

Search for Another Location

Airport or City:

Astronomy

Feb. 27, 2014 Rise Set
Actual Time 7:14 AM MST 5:53 PM MST
Civil Twilight 6:38 AM MST 6:30 PM MST
Nautical Twilight 5:57 AM MST 7:11 PM MST
Astronomical Twilight 5:15 AM MST 7:53 PM MST
Moon 6:01 AM MST (2/27) 4:15 PM MST (2/27)
Length of Visible Light 11h 51m
Length of Day
10h 39m
Waning Crescent, 4% of the Moon is Illuminated
Feb 27
Waning Crescent
Mar 1
New
Mar 8
First Quarter
Mar 16
Full
Mar 23
Last Quarter

Hourly Weather History & Observations

Time (MST) Temp. Windchill Dew Point Humidity Pressure Visibility Wind Dir Wind Speed Gust Speed Precip Events Conditions
12:00 AM 5.0 °F -6.9 °F -13.0 °F 43% 30.09 in 15.0 mi SE 6.9 mph - N/A   Overcast
1:00 AM 3.2 °F -10.3 °F -13.0 °F 47% 30.05 in 15.0 mi SSE 8.1 mph - N/A   Overcast
2:00 AM 3.2 °F -7.8 °F -11.2 °F 51% 30.05 in 15.0 mi ENE 5.8 mph - N/A   Overcast
3:00 AM 3.2 °F -6.2 °F -11.2 °F 51% 30.02 in 15.0 mi East 4.6 mph - N/A   Mostly Cloudy
4:00 AM 1.4 °F -9.9 °F -13.0 °F 51% 29.98 in 15.0 mi SE 5.8 mph - N/A   Partly Cloudy
5:00 AM -2 °F - -14 °F 42% 29.94 in 15 mi SSE 5.8 mph - -   Mostly Cloudy
5:00 AM -2.2 °F -12.5 °F -13.0 °F 60% 29.94 in 15.0 mi SSE 4.6 mph - N/A   Mostly Cloudy
6:00 AM -0.4 °F -10.4 °F -13.0 °F 55% 29.91 in 15.0 mi South 4.6 mph - N/A   Overcast
7:00 AM -0.4 °F -8.3 °F -11.2 °F 60% 29.88 in 15.0 mi South 3.5 mph - N/A   Mostly Cloudy
8:00 AM 5.0 °F -5.6 °F -5.8 °F 61% 29.86 in 15.0 mi SSW 5.8 mph - N/A   Mostly Cloudy
9:00 AM 5.0 °F -6.9 °F -7.6 °F 56% 29.82 in 15.0 mi South 6.9 mph - N/A   Overcast
10:00 AM 6.8 °F - -5.8 °F 56% 29.79 in 15.0 mi SSW 2.3 mph - N/A   Overcast
11:00 AM 9 °F - -4 °F 39% 29.77 in 15 mi SW 8.1 mph - -   Mostly Cloudy
11:00 AM 8.6 °F -4.7 °F -4.0 °F 57% 29.77 in 15.0 mi WSW 9.2 mph - N/A   Mostly Cloudy
12:00 PM 8.6 °F -5.5 °F -4.0 °F 57% 29.76 in 15.0 mi SW 10.4 mph - N/A   Overcast
1:00 PM 10.4 °F -3.3 °F -4.0 °F 52% 29.78 in 15.0 mi NW 10.4 mph - N/A   Overcast
2:00 PM 12.2 °F 4.3 °F -2.2 °F 53% 29.78 in 15.0 mi NW 4.6 mph - N/A   Mostly Cloudy
3:00 PM 17.6 °F 1.3 °F 1.4 °F 49% 29.80 in 15.0 mi North 19.6 mph 25.3 mph N/A Snow Light Snow Showers
4:00 PM 14.0 °F -2.5 °F -0.4 °F 53% 29.86 in 15.0 mi North 17.3 mph 25.3 mph N/A Snow Low Drifting Snow
5:00 PM 10 °F - -4 °F 37% 29.92 in 15 mi North 23.0 mph - - Snow Light Snow Showers
5:00 PM 10.4 °F -9.9 °F -4.0 °F 52% 29.92 in 15.0 mi North 24.2 mph 31.1 mph N/A Snow Light Snow Showers
5:33 PM - - - N/A% - 15.0 mi North 23.0 mph 28.8 mph N/A   Unknown
6:00 PM 5.0 °F -15.2 °F -9.4 °F 52% 30.00 in 15.0 mi North 19.6 mph 25.3 mph N/A Snow Low Drifting Snow
7:00 PM 1.4 °F -20.5 °F -13.0 °F 51% 30.07 in 15.0 mi North 20.7 mph - N/A Snow Low Drifting Snow
8:00 PM -2.2 °F -25.7 °F -16.6 °F 50% 30.13 in 15.0 mi NNW 21.9 mph 28.8 mph N/A Snow Low Drifting Snow
9:00 PM -5.8 °F -31.5 °F -20.2 °F 50% 30.19 in 15.0 mi North 24.2 mph 29.9 mph N/A Snow Low Drifting Snow
10:00 PM -9.4 °F -33.5 °F -23.8 °F 49% 30.25 in 15.0 mi North 18.4 mph 27.6 mph N/A Snow Low Drifting Snow
11:00 PM -11 °F - -25 °F 31% 30.29 in 15 mi NNW 15.0 mph - - Snow Low Drifting Snow
11:00 PM -11.2 °F -34.4 °F -25.6 °F 49% 30.29 in 15.0 mi NNW 16.1 mph 21.9 mph N/A Snow Low Drifting Snow